This is the latest recevied weather packets stored in our database for station/object LX0APE-4. If no packets are shown the sender has not sent any weather packets the latest 10 day(s).
| Time | Temp. | Humidity | Pressure | Rain* | Wind** | Luminosity | Snow |
|---|---|---|---|---|---|---|---|
| 1777560724 | 26.11° C | 15% | 5020.1 hPa | 0 mm | - | - | - |
| 1777560424 | 26.11° C | 14% | 5020.1 hPa | 0 mm | - | - | - |
| 1777560124 | 26.11° C | 14% | 5020.1 hPa | 0 mm | - | - | - |
| 1777559824 | 26.67° C | 13% | 5020.1 hPa | 0 mm | - | - | - |
| 1777559524 | 26.11° C | 14% | 5020.4 hPa | 0 mm | - | - | - |
| 1777559224 | 26.11° C | 14% | 5020.4 hPa | 0 mm | - | - | - |
| 1777558924 | 26.67° C | 14% | 5020.2 hPa | 0 mm | - | - | - |
| 1777558624 | 26.67° C | 15% | 5020.4 hPa | 0 mm | - | - | - |
| 1777558324 | 26.67° C | 15% | 5020.4 hPa | 0 mm | - | - | - |
| 1777558024 | 25.56° C | 15% | 5020.5 hPa | 0 mm | - | - | - |
| 1777557724 | 25° C | 15% | 5020.5 hPa | 0 mm | - | - | - |
| 1777557424 | 24.44° C | 16% | 5020.5 hPa | 0 mm | - | - | - |
| 1777557128 | 25° C | 15% | 5020.7 hPa | 0 mm | - | - | - |
| 1777557124 | 25° C | 15% | 5020.7 hPa | 0 mm | - | - | - |
| 1777556824 | 25.56° C | 15% | 5020.6 hPa | 0 mm | - | - | - |
| 1777556524 | 25° C | 15% | 5020.7 hPa | 0 mm | - | - | - |
| 1777556229 | 24.44° C | 14% | 5020.6 hPa | 0 mm | - | - | - |
| 1777556224 | 24.44° C | 14% | 5020.6 hPa | 0 mm | - | - | - |
| 1777555924 | 25° C | 15% | 5020.7 hPa | 0 mm | - | - | - |
| 1777555624 | 24.44° C | 15% | 5020.7 hPa | 0 mm | - | - | - |
| 1777555324 | 23.89° C | 15% | 5020.7 hPa | 0 mm | - | - | - |
| 1777555024 | 23.89° C | 16% | 5020.7 hPa | 0 mm | - | - | - |
| 1777554724 | 23.89° C | 16% | 5020.8 hPa | 0 mm | - | - | - |
| 1777554424 | 23.89° C | 16% | 5020.9 hPa | 0 mm | - | - | - |
| 1777554124 | 23.33° C | 16% | 5020.8 hPa | 0 mm | - | - | - |
* Rain latest hour (hover to see other rain measurements)
** Current wind speed in m/s (hover to see current wind gust speed)